Theta_e
318 321 323 324 324 332 333 332 335 333 336 335 336 333 333 336 336 343 342 343 345 348 350 351 351 350 351 351 352 352 353 353 353 354 355 356 356 356 355 355 355 352 352 352
322 320 322 328 334 336 340 330 331 334 336 331 333 335 337 344 349 353 352 352 351 348 347 347 351 352 351 351 350 351 353 353 354 354 356 357 356 358 357 357 353 353 353 352
320 323 322 329 331 342 338 336 335 335 332 332 332 340 344 350 350 351 352 355 354 351 350 349 349 348 347 348 351 351 352 353 354 355 356 357 356 357 359 356 354 352 351 352
317 320 335 336 334 335 334 333 334 337 333 335 341 344 344 345 345 345 347 352 356 356 353 353 352 349 347 349 350 351 353 354 354 355 356 357 356 357 358 355 353 352 350 350
318 320 330 333 332 334 336 331 329 336 341 343 341 338 335 335 335 335 337 342 350 356 358 355 353 352 351 351 350 351 352 353 355 355 357 357 356 357 357 355 354 351 351 349
317 331 334 330 329 329 330 332 327 328 331 334 338 336 335 333 331 330 329 329 331 343 355 354 355 355 355 357 356 354 354 355 356 357 357 357 357 357 357 355 352 353 353 349
332 332 331 327 325 329 334 331 325 325 324 324 324 326 324 327 330 331 329 329 328 328 332 340 354 357 358 359 359 359 357 357 357 357 357 358 358 357 355 353 354 355 352 350
328 331 334 324 326 332 326 325 323 324 324 324 324 324 324 324 324 327 328 327 330 331 329 329 332 340 347 355 357 359 358 358 357 357 358 357 358 358 353 352 353 353 351 349
325 325 322 322 323 324 324 323 323 323 323 323 324 323 323 324 324 324 324 324 326 330 330 328 329 330 330 332 339 352 360 359 359 358 355 355 358 358 355 353 352 352 349 346
321 321 323 323 323 324 323 323 324 324 323 323 323 323 323 323 323 324 324 324 324 324 325 326 326 326 332 331 330 331 338 354 358 359 355 355 353 350 349 349 347 345 348 347
321 321 323 323 323 323 323 323 323 323 324 324 324 323 323 324 324 324 324 324 324 324 324 324 324 324 324 326 328 330 329 327 338 355 355 353 350 347 344 346 348 348 346 347
321 321 322 322 322 323 323 322 322 323 323 322 322 322 322 322 322 322 322 322 323 323 323 323 324 325 325 324 324 328 330 328 327 330 341 344 344 346 341 335 332 334 343 344
322 322 321 321 321 321 321 320 320 320 320 320 320 320 319 319 319 319 319 319 319 319 320 320 321 323 326 325 324 324 329 331 329 327 330 334 338 337 336 337 333 327 333 342
321 321 320 321 318 317 315 314 314 315 315 315 316 316 317 317 317 318 318 318 318 318 317 317 318 319 321 326 326 324 324 332 332 330 328 325 333 340 337 329 331 333 335 338
320 320 319 316 315 312 312 312 313 314 315 316 316 317 317 317 316 317 317 318 318 319 320 320 320 318 318 321 325 326 325 324 327 332 331 326 327 343 336 336 338 336 337 337
319 319 315 313 311 311 311 311 311 311 311 310 310 311 313 313 315 314 316 316 317 318 320 321 321 320 319 319 321 324 327 324 324 327 331 329 328 328 344 342 336 338 336 336
319 316 314 313 311 311 310 310 310 310 310 310 309 310 310 310 311 312 312 313 314 315 319 319 321 321 320 320 322 324 325 327 327 327 331 332 331 331 328 339 337 335 337 337
319 318 317 316 312 311 310 309 309 309 308 308 308 308 308 307 309 309 311 311 312 313 317 319 320 321 322 321 322 322 323 324 326 326 326 329 331 331 331 329 327 335 340 341
319 319 318 317 314 312 309 308 308 308 308 308 309 308 308 308 309 309 310 310 310 311 313 314 317 320 321 323 324 324 323 325 324 325 326 326 327 328 328 329 329 328 326 325
319 318 317 316 314 311 310 308 306 306 307 308 308 308 307 307 307 308 309 310 309 310 312 313 316 319 320 322 324 324 325 324 325 325 324 325 325 326 326 326 327 327 327 328
319 318 318 316 314 311 310 308 306 304 304 307 308 308 306 306 307 307 307 307 308 310 312 313 314 316 319 320 321 323 325 325 325 325 326 325 325 325 326 326 327 327 328 328
319 320 319 317 314 312 310 307 305 303 303 305 306 308 307 306 306 308 308 306 307 309 311 312 313 316 318 318 323 323 322 323 324 324 323 323 324 324 324 325 326 326 327 328
317 318 319 316 315 314 311 307 306 304 305 305 303 305 307 307 307 307 308 308 308 309 309 309 311 315 317 319 321 322 324 323 323 323 324 324 323 324 324 324 324 325 326 326
314 316 317 316 316 315 311 309 309 307 306 306 305 303 304 305 306 308 308 308 308 309 309 309 310 312 315 317 319 321 321 322 322 323 324 323 323 324 324 324 324 324 325 325
315 314 315 316 315 309 308 307 308 309 308 306 306 305 303 303 303 303 303 305 307 308 309 309 309 310 311 311 313 315 318 319 320 320 321 321 321 322 323 323 323 324 324 324
314 312 313 311 309 308 307 308 309 310 310 308 306 306 305 304 304 304 304 303 303 304 306 306 306 308 309 309 309 310 310 312 315 317 318 319 320 322 321 322 323 323 324 324
311 309 310 310 310 309 308 309 309 308 309 310 307 306 307 306 305 305 305 305 304 302 302 302 302 303 304 306 308 308 309 309 309 310 312 315 317 318 319 320 321 323 323 323
Wind_Speed
6 5 4 5 4 6 6 6 6 8 9 10 13 1 8 11 15 21 20 19 3 9 17 23 23 21 22 24 27 30 32 32 32 29 28 28 25 23 22 24 22 20 18 18
2 6 7 4 8 10 6 2 1 4 5 4 11 10 8 14 18 17 20 17 14 10 5 9 23 27 25 23 24 25 29 33 33 32 30 28 26 26 25 26 24 20 22 21
7 4 6 5 6 7 6 7 2 5 6 2 9 15 18 22 19 20 23 23 19 16 14 13 12 12 19 25 29 28 28 28 34 35 34 31 28 29 28 26 22 22 24 27
4 3 4 3 8 15 16 8 11 4 3 12 25 26 25 22 21 24 24 25 25 22 18 18 16 13 12 17 25 28 29 30 30 36 37 34 30 29 26 26 25 22 24 24
5 3 2 2 3 3 3 9 13 8 13 21 26 26 28 24 24 25 25 24 24 23 22 20 16 13 12 12 14 21 23 26 29 32 37 36 33 30 27 25 24 26 25 22
3 6 7 6 3 10 1 5 15 15 17 18 10 7 3 16 21 24 25 27 28 26 21 17 21 19 13 11 12 17 18 21 22 24 28 34 36 33 28 23 24 24 22 19
4 4 2 4 15 6 4 6 3 24 25 29 14 9 17 21 20 22 23 24 27 28 26 23 20 19 17 14 14 14 14 19 23 24 25 29 33 28 25 23 23 20 19 18
3 4 2 22 5 5 8 17 15 19 18 21 21 19 20 21 21 22 24 24 23 25 26 25 23 22 21 18 19 17 17 17 17 20 23 24 26 23 21 24 21 19 18 18
3 5 5 22 25 26 24 24 22 24 20 17 21 21 19 21 19 19 22 21 20 22 23 23 24 24 24 23 23 22 16 16 15 18 20 21 22 23 23 22 20 20 19 19
6 5 16 24 31 29 27 27 23 21 17 14 18 14 12 14 19 17 17 19 20 19 19 20 21 22 21 22 23 25 23 17 16 14 15 15 16 16 15 17 22 23 21 21
11 10 20 25 23 21 20 18 17 16 17 17 14 12 15 14 18 21 21 22 22 22 22 21 21 21 20 22 23 21 21 21 17 14 13 14 11 6 19 8 9 18 27 25
3 13 20 12 18 15 15 16 16 11 12 14 13 13 15 18 21 24 26 28 28 28 27 26 23 21 21 19 20 21 17 16 18 13 11 15 13 15 27 28 12 31 30 28
11 22 27 25 19 16 15 13 13 14 11 12 13 15 17 21 26 29 30 30 30 31 31 29 28 23 19 18 18 17 17 12 12 14 12 11 14 19 23 28 29 28 41 29
17 16 24 16 14 14 13 12 9 8 11 14 18 20 21 23 25 25 26 26 27 28 28 29 29 29 22 18 14 16 16 14 10 11 13 16 19 21 16 22 30 25 33 28
25 23 21 15 14 18 18 20 21 21 19 19 21 22 23 24 24 24 23 23 23 24 26 28 28 26 22 19 16 14 17 18 15 12 12 14 16 13 20 22 29 26 28 24
20 18 18 21 21 21 24 26 25 25 25 25 25 24 24 24 26 27 26 25 26 26 27 28 29 22 19 16 17 14 13 20 21 17 15 14 16 17 20 26 34 28 27 36
21 19 19 21 20 22 24 22 22 23 23 24 24 24 24 23 23 24 26 26 26 26 22 27 27 23 17 15 17 16 14 11 14 15 16 17 18 18 16 22 28 31 31 27
14 15 15 15 18 19 20 21 22 23 24 24 27 29 29 27 27 28 26 27 28 25 20 21 23 23 20 18 15 17 19 20 16 17 16 18 20 22 22 21 20 26 26 26
10 12 12 13 14 16 19 21 22 23 24 26 27 27 26 27 27 28 27 24 24 26 28 28 27 22 20 18 14 15 16 16 21 18 19 20 19 20 21 22 23 25 23 22
10 9 9 10 12 15 18 19 21 22 22 24 26 28 27 30 30 29 27 26 23 26 29 30 23 20 19 18 15 15 14 15 14 16 20 19 20 22 23 20 19 22 26 28
8 6 4 6 9 12 17 19 21 24 23 22 26 28 28 28 32 33 33 33 30 28 28 27 22 20 19 21 21 19 17 15 16 17 19 22 23 21 20 19 20 20 21 20
5 2 1 3 5 9 14 18 19 24 27 26 26 26 29 29 31 34 33 31 31 29 26 26 25 21 21 22 21 18 19 20 22 23 24 24 24 23 22 21 18 19 19 18
3 1 2 2 2 6 10 13 18 21 25 29 31 30 28 27 27 31 35 36 35 31 29 28 26 23 19 17 19 15 10 15 16 16 17 19 20 21 22 24 24 23 21 21
3 2 4 2 3 5 8 7 11 15 18 21 26 29 31 33 30 25 25 28 32 34 34 32 30 26 21 18 15 14 15 6 7 11 14 15 16 17 18 21 24 23 25 25
3 4 1 2 1 3 5 6 7 9 13 17 20 22 25 28 32 35 36 33 28 27 31 35 37 35 32 29 24 20 17 16 16 16 15 14 16 19 19 17 18 21 24 26
4 4 3 3 2 3 5 6 10 12 13 15 17 19 21 21 24 26 30 34 36 34 33 32 31 30 34 36 35 33 30 25 19 17 16 15 13 13 14 17 17 13 14 15
4 5 2 1 2 3 4 6 10 11 12 13 16 16 18 20 20 22 25 27 29 32 33 33 33 33 33 31 31 33 35 35 35 31 22 16 14 13 15 17 19 21 20 15
Wind_Direction
220 211 202 220 294 176 174 174 166 241 200 228 220 269 339 22 23 18 45 42 0 255 248 243 242 246 249 256 252 253 252 245 249 253 251 249 246 246 240 239 245 247 247 248
92 203 214 75 18 63 18 72 265 149 242 263 114 74 64 46 58 44 39 42 57 72 27 300 264 259 260 267 269 262 258 252 250 252 251 248 245 245 250 251 258 256 251 248
224 201 135 36 339 95 92 28 136 183 212 158 77 75 46 53 46 48 41 32 32 26 9 350 331 298 280 269 265 270 264 264 256 255 254 252 250 249 249 257 257 256 262 251
148 59 78 193 115 100 82 40 2 340 101 94 99 80 65 53 44 37 31 30 28 20 9 359 353 350 310 267 264 269 270 268 269 262 259 257 256 257 258 260 259 262 267 265
122 76 75 193 277 332 93 20 5 22 80 107 112 77 45 48 44 39 33 29 24 21 14 3 352 359 6 340 300 277 281 282 280 279 268 262 261 263 260 262 260 264 269 269
105 120 186 225 315 323 338 27 347 44 48 46 100 69 313 32 42 35 32 29 26 20 10 355 360 357 341 334 322 334 323 314 306 294 287 273 268 266 262 264 269 266 270 268
105 109 279 47 317 323 113 194 93 81 69 66 73 68 45 39 35 30 26 23 23 23 21 13 358 353 351 336 310 303 304 304 306 300 294 283 273 272 268 268 265 269 267 266
84 83 132 343 345 148 140 117 98 81 80 90 75 52 36 31 29 19 13 12 8 8 12 13 8 1 357 346 333 300 295 308 317 309 295 294 283 272 258 261 259 260 262 263
100 133 337 47 74 99 99 86 76 76 64 52 76 49 32 16 7 10 4 358 355 356 357 3 11 6 5 2 352 338 309 291 296 309 295 288 280 279 261 256 258 259 261 259
77 357 59 60 78 79 80 75 71 67 61 50 43 35 15 355 346 347 343 342 341 339 344 349 360 8 9 357 358 2 348 318 289 282 300 291 290 288 272 289 295 291 280 270
104 137 76 57 69 73 74 74 67 51 37 29 19 6 4 335 326 329 327 326 330 333 333 338 340 343 349 350 354 354 6 4 353 311 287 271 231 149 51 352 328 307 298 292
111 84 102 81 66 58 58 47 32 34 16 1 354 343 330 323 321 319 320 320 319 318 319 320 324 327 334 339 342 350 348 358 359 348 290 276 268 257 248 248 239 285 269 270
99 102 96 84 68 50 44 29 17 13 356 342 336 337 331 324 319 316 313 313 313 314 314 314 311 308 319 328 322 325 337 328 342 341 327 304 269 267 265 253 251 252 249 254
119 100 72 76 66 49 40 29 22 4 349 345 339 331 327 327 325 326 327 328 326 323 319 315 309 304 297 308 318 308 301 311 305 320 319 313 291 278 263 271 245 209 223 226
85 87 91 82 65 46 38 37 31 21 8 4 358 352 345 339 337 338 339 342 339 339 341 341 330 315 311 287 295 305 295 282 296 284 293 308 310 258 243 244 207 213 207 226
104 94 76 65 60 54 46 41 34 24 17 8 360 350 341 336 331 333 336 338 340 341 347 348 344 331 326 304 292 290 297 291 276 282 273 289 305 303 269 251 242 239 246 259
112 99 84 71 56 48 45 40 32 23 15 10 3 352 342 334 328 329 331 332 334 331 340 344 340 339 325 309 295 284 281 278 268 269 270 271 281 294 301 265 255 257 272 257
99 92 76 64 59 50 43 37 32 29 24 18 16 11 3 358 350 344 336 328 328 330 333 317 328 333 326 316 301 287 283 275 275 282 270 272 276 282 287 290 288 284 280 275
102 95 82 65 53 47 45 39 33 26 21 17 16 15 12 7 360 355 351 349 352 343 331 319 319 321 325 323 321 309 281 291 269 270 280 272 273 278 280 277 282 284 288 289
128 113 99 84 65 51 46 39 32 25 19 15 16 18 11 7 3 360 0 355 351 337 338 343 336 326 316 306 304 300 289 276 280 273 270 279 280 279 280 279 284 285 284 283
144 131 112 74 64 52 42 37 30 25 20 16 17 16 17 6 8 13 8 359 352 346 341 340 337 334 334 330 314 296 288 285 278 277 276 273 277 281 284 290 283 289 283 285
127 163 167 80 52 40 41 38 35 32 30 26 19 14 17 21 20 24 22 7 1 358 352 352 346 334 326 325 326 316 287 284 284 280 284 282 279 281 277 276 282 283 284 286
114 155 210 180 14 17 42 48 40 35 32 29 28 24 20 21 23 22 22 23 17 14 12 6 358 347 338 332 328 329 311 292 285 282 281 289 282 279 281 279 281 277 281 278
130 126 196 252 316 357 25 37 28 28 25 24 26 27 26 26 27 22 24 27 29 27 26 20 15 12 6 358 342 333 346 2 312 290 285 288 283 280 281 276 271 274 273 275
108 82 128 234 302 40 50 47 11 0 11 18 21 21 27 31 32 29 28 23 20 25 29 29 28 28 28 24 17 8 350 338 332 323 314 303 289 285 285 291 295 278 276 275
80 74 102 120 113 61 55 8 355 347 339 354 7 8 11 13 16 18 20 24 27 26 26 30 29 26 29 33 34 34 32 19 1 348 330 319 303 302 286 280 278 284 271 271
115 89 142 216 275 306 341 338 333 344 336 323 342 354 352 358 3 8 10 13 18 22 24 24 25 28 30 28 26 28 29 35 33 29 15 351 328 301 288 283 283 268 277 273